SCP
0 0 -0 -0 -0 -0 -0 0 0 0 0 0 0 0 0 0 0 0 0 0 0 0 0 0 0 0 0 0 0 0 0 0 0 0 0 0 0 0 0 0 0 0 0 0 0 0 0
0 0 -0 -0 -0 -0 -0 0 0 0 0 0 0 0 0 0 0 0 0 0 0 0 0 0 0 0 0 0 0 -0 0 0 0 0 0 0 0 0 0 0 0 0 0 0 0 0 0
0 -0 -0 -0 -0 -0 0 0 0 0 0 0 0 0 0 0 0 0 0 0 0 0 0 0 0 0 0 -0 0 -0 -0 0 0 0 -0 0 0 0 0 0 0 0 0 0 0 0 0
0 -0 -0 -0 0 0 0 0 0 0 0 0 0 0 0 0 0 0 0 0 0 0 0 0 0 0 0 0 0 0 -0 0 0 0 0 0 0 0 0 0 0 0 0 0 0 0 0
0 0 0 0 0 0 0 0 0 0 0 0 0 0 0 0 0 0 0 -0 0 0 0 0 0 0 0 0 0 0 0 0 0 0 0 0 0 0 0 0 0 0 0 0 0 0 0
0 0 0 0 0 0 0 0 0 0 0 0 0 0 0 0 0 0 0 0 0 0 0 0 0 0 0 0 0 0 0 0 0 0 0 0 0 0 0 0 0 0 0 0 0 0 0
0 0 0 0 0 0 0 0 0 0 0 0 0 0 0 0 0 0 0 0 0 0 0 0 0 0 0 -0 -0 -0 -0 0 0 0 0 0 0 0 0 0 0 0 0 0 0 0 0
0 0 0 0 0 0 0 0 0 0 0 0 0 0 0 0 0 -0 0 0 0 0 0 -0 0 0 -0 -0 -0 -0 0 0 0 0 0 0 0 0 0 0 0 0 0 0 0 0 0
0 0 0 0 0 0 0 0 0 0 0 0 0 0 0 0 0 0 0 0 0 0 0 0 0 0 0 0 0 0 -0 0 0 0 0 0 0 0 0 0 0 0 0 0 0 0 0
0 0 0 0 0 0 0 0 0 0 0 0 0 0 0 0 0 0 0 0 0 0 0 0 -0 0 0 0 0 0 0 0 0 0 0 -0 -0 0 0 0 0 0 0 0 0 0 0
0 0 0 0 0 0 0 0 0 0 0 0 0 0 0 0 0 0 0 0 0 0 0 0 0 0 -0 -0 0 0 0 0 0 0 0 0 0 -0 0 0 0 0 0 0 0 0 0
0 0 0 0 0 0 0 0 0 0 0 0 0 0 -0 0 0 0 0 0 0 0 0 0 -0 0 -0 0 0 0 0 0 0 0 0 -0 -0 -0 0 0 0 0 0 0 0 0 0
0 0 0 0 0 0 0 0 0 0 0 0 0 0 -0 0 0 0 0 0 0 0 0 0 0 0 -0 -0 0 0 -0 0 0 0 0 0 -0 0 0 0 0 0 0 0 0 0 0
0 0 0 0 0 0 0 0 0 0 0 0 0 0 0 0 0 0 0 0 0 0 -0 -0 0 -0 0 -0 0 -0 -0 0 0 0 0 0 0 0 0 0 0 0 0 0 0 0 0
0 0 0 0 0 0 0 0 0 0 0 0 0 0 0 0 0 0 0 0 0 -0 -0 -0 0 0 0 -0 0 0 0 0 0 0 0 0 0 0 0 0 0 0 0 0 0 0 0
0 0 0 0 0 0 0 0 0 0 0 0 0 0 0 0 0 0 0 0 0 0 -0 -0 0 0 0 0 0 0 0 0 0 0 0 0 -0 -0 -0 -0 0 0 0 0 0 0 0
0 0 0 0 0 0 0 0 0 0 0 0 0 0 0 0 0 0 0 0 0 0 0 -0 -0 0 0 0 0 0 0 0 0 0 -0 0 0 0 -0 -0 0 0 0 0 0 0 0
0 0 0 0 0 0 0 0 0 0 -0 0 0 0 0 0 0 0 0 0 0 0 0 0 0 0 0 0 0 0 0 0 0 0 0 0 -0 0 0 -0 0 0 0 0 0 0 0
0 0 0 0 0 0 0 0 0 0 0 0 0 0 0 0 0 0 0 0 -0 -0 0 0 0 0 0 0 0 0 0 0 0 0 -0 0 -0 -0 0 0 0 0 0 0 -0 0 0
0 0 0 0 0 0 0 0 0 0 0 0 0 0 0 0 0 0 0 0 -0 0 0 0 -0 0 0 0 0 0 0 0 -0 0 0 -0 -0 -0 0 0 0 0 0 0 0 0 0
0 0 0 0 0 0 0 0 0 0 0 0 0 0 0 0 0 0 0 0 -0 -0 0 0 0 0 -0 0 0 0 0 -0 -0 0 0 0 0 -0 0 0 0 0 0 0 0 0 0
0 0 0 0 0 0 0 0 0 0 0 0 0 0 0 0 0 0 0 0 -0 -0 0 0 0 -0 -0 0 0 -0 -0 -0 0 0 0 0 -0 -0 -0 0 0 0 0 0 0 0 0
0 0 0 0 0 0 0 0 0 0 0 0 0 0 0 0 0 0 0 0 -0 0 0 0 -0 -0 -0 0 -0 -0 -0 -0 -0 0 0 0 0 0 -0 0 0 0 0 0 0 0 0
0 0 0 0 0 0 0 0 0 0 0 0 0 0 0 0 0 0 0 0 0 0 0 0 0 0 -0 -0 0 0 0 0 0 0 -0 0 0 0 -0 0 0 0 0 1 0 0 0
0 0 0 0 0 0 0 0 0 0 0 0 0 0 0 0 0 0 0 0 0 0 0 0 -0 -0 -0 0 0 0 0 0 0 0 -0 0 0 0 0 0 0 0 0 0 0 0 0
0 0 0 0 0 0 0 0 0 0 0 0 0 0 0 0 0 0 0 0 0 0 0 0 0 0 0 0 0 0 0 0 0 0 0 0 0 0 0 0 0 0 0 0 0 0 0
0 0 0 0 0 0 0 0 0 0 0 0 0 0 0 0 0 0 0 0 0 0 0 0 -0 0 0 0 0 0 0 0 0 0 -0 0 0 0 0 0 0 0 0 0 0 0 0
0 0 0 0 0 0 0 0 0 0 0 0 0 0 0 0 0 0 0 0 0 0 0 0 -0 0 0 0 0 0 0 0 0 0 0 0 0 0 0 0 0 0 0 0 0 0 0
0 0 0 0 0 0 0 0 0 0 0 0 0 0 0 0 0 0 0 -0 -0 -0 0 0 -0 -0 0 0 -0 0 0 0 0 0 0 0 0 0 0 0 0 -0 0 -0 0 0 0
Wind_Speed_500mb
47 46 43 42 42 42 41 43 44 45 47 50 54 59 64 68 70 71 66 59 56 53 52 42 47 45 32 21 56 45 26 36 29 32 17 31 48 47 40 14 44 47 46 50 59 69 73
50 48 47 46 45 45 45 46 47 49 51 56 60 65 69 73 74 73 68 64 60 53 46 44 45 34 26 35 36 21 28 41 26 27 39 33 43 49 37 35 40 16 45 50 58 63 71
51 50 50 49 48 48 48 49 51 53 56 60 64 68 72 76 77 73 68 63 54 48 42 35 36 26 30 76 42 26 24 33 25 39 50 44 52 52 33 28 78 66 45 33 48 60 51
53 53 52 51 50 49 50 51 53 56 59 63 67 71 75 77 80 71 62 53 46 25 29 29 32 19 28 47 21 23 19 26 24 37 50 43 45 49 53 53 53 33 30 35 46 50 50
55 55 54 53 53 52 53 54 56 59 63 66 70 74 79 80 78 64 52 45 26 45 38 33 26 15 27 22 29 14 23 27 24 25 26 38 39 46 45 28 31 25 32 42 48 42 41
57 57 55 54 54 55 57 58 60 64 66 69 73 77 81 85 77 54 48 39 37 25 7 10 9 11 39 14 31 56 51 29 26 19 24 24 35 19 23 27 30 34 47 43 49 48 50
58 57 57 57 57 59 60 61 64 65 68 71 75 80 83 86 68 40 44 50 47 6 18 28 44 42 70 89 77 55 43 27 33 20 13 16 10 30 34 40 46 38 40 45 31 39 32
57 58 59 59 60 61 61 64 67 68 69 72 76 80 85 83 48 28 32 34 22 17 36 60 44 61 68 51 54 48 37 30 22 17 16 19 27 43 35 39 46 50 47 42 32 36 39
57 58 59 60 60 60 62 65 69 71 71 73 79 84 87 71 29 25 31 36 29 35 11 34 25 35 35 31 30 47 40 40 20 25 28 26 21 29 50 42 43 52 46 38 31 32 32
57 59 60 60 61 63 66 67 69 71 73 75 81 85 78 48 18 23 22 44 35 42 4 9 22 18 32 51 20 18 19 31 10 19 38 23 34 36 40 48 42 44 42 42 31 25 27
57 59 60 61 62 65 67 67 70 73 75 77 82 79 59 25 37 29 42 44 41 30 9 10 34 45 71 29 47 5 20 11 20 28 21 17 18 25 36 42 43 40 39 35 37 26 3
57 59 62 62 63 64 66 69 72 74 78 80 80 61 33 20 32 40 51 44 24 5 9 19 47 47 50 35 24 10 2 8 11 16 27 38 38 28 18 29 41 36 37 37 31 18 14
57 59 61 63 64 65 67 70 74 77 79 84 78 40 21 28 36 38 38 31 6 3 35 31 52 51 25 39 33 27 30 7 8 9 15 20 39 37 28 13 34 41 29 15 21 16 12
57 58 62 64 65 66 68 70 75 79 82 85 67 26 16 25 35 30 40 7 4 30 25 39 43 43 20 36 32 38 22 11 13 15 7 8 8 36 43 47 12 37 27 6 9 16 21
56 59 63 64 65 66 68 72 75 80 83 80 42 18 22 32 29 22 29 7 7 21 32 37 38 20 24 39 23 27 26 3 14 8 6 8 11 26 34 18 19 12 23 35 10 10 10
56 59 62 64 65 66 68 72 72 79 79 67 43 26 17 47 38 24 9 9 16 26 33 30 15 11 26 35 25 28 15 4 12 18 10 8 12 24 36 29 30 16 12 20 8 9 11
54 58 62 65 65 66 68 70 68 75 74 59 37 18 34 33 22 24 5 8 21 43 42 20 28 21 27 16 14 12 11 14 2 15 23 6 7 6 35 12 20 7 4 9 5 8 10
52 56 62 65 65 66 67 66 65 66 72 57 24 8 38 36 19 16 8 12 23 30 38 17 13 13 10 15 13 10 15 18 1 17 16 9 6 8 27 27 36 13 16 17 14 12 6
52 57 61 63 64 65 65 64 61 59 57 64 36 13 31 32 7 9 16 23 23 26 30 16 12 19 7 19 16 13 16 18 13 19 8 10 3 7 12 15 7 9 15 22 16 5 7
53 55 59 62 64 63 63 63 60 52 44 40 20 9 19 18 43 18 19 21 31 36 18 37 21 24 25 25 22 17 24 16 48 12 18 11 7 6 3 6 8 7 11 9 7 1 10
53 55 57 60 61 62 62 62 60 53 36 34 24 11 15 10 16 33 24 30 39 27 23 20 7 16 39 23 31 7 37 42 24 11 8 11 7 10 20 29 15 11 12 9 11 23 9
51 52 55 58 60 60 59 60 57 55 35 26 15 14 19 47 44 29 18 26 37 42 23 21 26 41 36 30 22 49 44 40 11 3 2 4 5 13 11 6 16 6 15 19 23 45 31
52 51 52 56 58 58 56 55 51 51 46 18 29 27 18 25 19 21 15 32 40 38 17 44 39 40 39 28 62 71 68 66 33 12 4 2 3 4 2 3 7 14 11 15 4 25 27
51 52 50 53 54 55 53 51 46 42 36 21 18 28 11 10 17 22 38 40 40 34 30 57 44 33 50 88 83 51 25 22 17 7 13 6 5 3 11 7 8 10 36 22 18 14 29
52 49 49 50 51 52 50 48 43 37 35 29 14 20 11 11 31 34 41 42 52 43 31 37 65 73 72 43 9 12 8 6 8 20 22 7 3 3 9 9 7 15 19 11 15 17 40
52 47 46 46 47 49 50 44 41 36 35 31 15 15 19 16 9 44 46 47 23 23 19 38 51 54 62 6 10 11 10 11 12 24 18 18 11 2 7 9 7 4 25 41 28 10 23
55 49 43 43 44 47 46 40 39 35 32 33 8 11 23 20 39 34 25 26 30 32 15 27 51 24 49 15 10 8 7 16 11 19 16 12 10 12 9 10 7 14 46 26 8 9 48
55 51 40 41 41 45 45 40 38 35 32 34 23 4 23 20 62 30 29 59 60 42 10 37 18 9 8 13 9 8 8 10 9 6 13 13 9 8 8 8 8 47 42 6 14 48 53
53 48 38 40 39 44 44 40 37 34 31 32 35 16 15 35 58 60 38 39 49 42 37 16 11 7 9 5 5 6 5 8 14 9 16 9 11 6 10 5 14 49 45 52 62 62 63
Wind_Direction_500mb
16 14 11 8 8 6 4 1 357 354 353 349 348 347 346 345 343 338 332 326 320 321 311 309 311 312 309 271 258 310 334 317 310 284 248 232 224 228 240 243 248 234 238 245 248 257 262
16 12 10 9 9 6 3 359 355 353 350 348 349 348 346 343 341 335 330 325 320 314 306 309 308 310 283 262 304 297 291 292 268 249 261 255 246 235 271 238 245 256 232 240 248 246 254
15 12 10 7 7 4 0 357 353 350 348 347 348 346 344 342 339 333 328 327 324 317 306 299 300 295 265 264 297 296 270 317 319 264 274 274 243 235 230 245 248 249 263 244 230 241 246
12 11 10 7 4 1 358 355 352 348 346 347 346 344 342 340 337 332 330 334 330 337 300 288 287 276 258 315 298 306 306 294 308 286 274 271 275 280 263 265 280 251 246 245 239 230 236
10 10 7 5 2 359 356 354 350 347 346 345 344 343 341 339 336 331 333 342 344 327 298 281 265 250 266 324 277 320 344 260 283 315 288 263 275 281 275 261 259 256 230 233 240 231 220
9 7 5 3 1 358 355 352 349 347 345 344 344 342 339 337 335 332 335 349 350 335 33 353 287 242 259 259 299 298 303 278 264 265 286 271 278 271 262 243 231 227 218 229 224 224 210
7 5 2 1 359 357 354 350 348 347 345 345 343 341 338 337 335 337 340 347 358 332 296 283 269 246 277 278 287 288 282 287 285 221 256 243 256 240 246 232 243 244 246 236 249 221 231
4 3 1 359 358 357 353 349 347 347 347 345 341 341 339 336 335 348 337 338 3 313 308 313 283 265 267 285 272 279 282 282 295 240 256 260 225 251 242 257 236 245 244 235 227 223 225
2 1 359 357 357 354 352 350 347 347 346 344 341 343 339 337 340 354 330 340 321 335 297 306 312 301 335 320 311 271 297 279 245 265 250 238 246 249 247 247 258 238 238 243 230 206 230
-0 360 358 356 354 353 352 350 347 346 345 343 340 344 339 342 4 3 356 341 325 333 334 272 346 353 312 316 301 289 321 293 212 244 257 223 241 240 251 240 244 249 238 244 247 217 215
359 359 356 355 354 354 352 349 347 346 343 343 342 346 344 343 344 338 337 331 321 339 313 33 357 342 338 351 317 308 289 207 257 256 279 269 213 248 237 237 237 266 241 236 250 264 224
358 358 356 355 355 354 352 350 347 345 344 343 343 346 349 4 344 346 343 324 313 325 313 336 346 338 338 340 14 321 292 348 2 259 262 264 260 252 270 271 234 244 269 243 246 247 258
357 357 355 355 355 354 353 351 346 344 344 341 343 346 356 345 347 355 346 336 14 33 336 340 336 332 337 352 346 352 322 231 216 243 219 266 234 230 219 257 255 229 233 228 217 218 214
355 355 355 356 355 355 354 352 347 345 345 343 349 354 13 335 349 345 337 4 310 346 337 334 333 319 353 358 333 344 317 341 272 221 303 264 266 195 201 220 189 224 225 215 137 158 209
353 354 356 356 355 356 354 354 349 346 349 349 6 26 13 338 337 324 4 10 349 1 344 332 330 333 338 336 347 347 326 284 350 206 281 302 258 185 185 151 146 218 213 199 309 177 133
354 354 354 355 356 356 356 356 352 347 354 356 358 11 21 350 7 332 47 306 347 354 340 339 317 322 317 332 342 342 297 358 340 355 308 288 300 188 178 175 185 221 180 192 191 183 156
352 352 353 356 356 356 357 357 356 349 356 3 10 338 6 12 28 34 77 311 318 346 349 338 315 306 318 322 310 306 285 298 12 313 329 252 265 215 157 159 205 166 181 241 17 264 160
349 350 354 357 357 357 357 360 358 354 352 12 15 330 2 17 42 350 351 336 316 355 348 325 295 310 305 304 283 295 298 313 50 11 323 302 322 298 177 156 196 194 215 185 181 260 290
347 351 354 355 356 357 357 0 1 358 355 351 341 288 343 22 32 349 320 310 338 356 340 353 310 315 316 311 305 247 278 304 327 319 297 339 287 323 345 114 106 172 234 184 180 344 171
347 349 352 354 355 356 357 358 1 4 4 360 343 344 343 356 351 339 316 347 351 354 336 336 305 305 310 312 294 284 289 301 318 327 249 188 292 258 210 137 145 113 309 161 179 357 53
344 347 350 352 354 355 355 356 359 9 7 15 16 15 23 312 320 311 309 2 346 343 354 350 299 325 329 309 312 272 313 312 329 132 325 185 259 248 265 285 128 161 250 326 289 210 131
341 343 347 350 350 352 354 355 358 4 20 23 27 351 323 297 290 318 17 345 349 337 346 334 324 323 314 302 294 309 308 301 282 183 125 304 291 346 257 311 337 187 206 230 256 200 121
336 339 345 347 348 349 352 354 357 3 14 43 8 347 315 285 324 333 339 336 340 333 314 326 323 318 318 314 306 290 283 274 259 238 256 230 277 218 342 148 290 211 255 201 354 69 122
332 335 341 343 344 346 347 351 354 2 11 26 357 340 308 297 332 327 308 333 329 332 322 319 337 338 311 312 305 291 273 62 38 26 224 186 264 14 139 96 73 36 24 24 81 79 105
329 331 335 337 339 341 342 347 349 358 357 3 18 331 313 299 307 311 330 324 320 322 327 313 335 332 329 317 312 338 21 7 2 5 3 245 317 292 131 108 138 25 17 18 350 120 128
326 328 329 333 334 332 337 341 346 349 349 3 53 351 316 303 274 322 312 306 320 329 320 333 340 342 357 306 342 1 10 331 347 342 355 33 51 218 92 80 96 346 316 353 332 110 138
320 322 325 329 324 327 333 335 338 343 344 346 14 334 315 279 281 306 300 301 304 321 298 319 346 346 6 350 358 352 7 347 6 4 341 359 358 18 54 90 65 340 322 310 184 151 143
319 321 321 317 316 325 327 331 333 336 340 338 355 3 314 276 296 289 298 297 291 296 299 317 334 24 332 8 6 346 340 359 352 46 349 20 328 13 347 75 64 341 336 352 127 123 123
317 319 312 310 316 323 325 327 325 329 331 328 323 314 278 290 277 311 306 310 290 299 274 309 292 313 356 334 5 314 344 333 341 17 3 44 348 11 29 79 289 312 265 92 98 94 110
Wind_Speed_850mb
47 46 43 42 42 42 41 43 44 45 47 50 54 59 64 68 70 71 66 59 56 53 52 42 47 45 32 21 56 45 26 36 29 32 17 31 48 47 40 14 44 47 46 50 59 69 73
50 48 47 46 45 45 45 46 47 49 51 56 60 65 69 73 74 73 68 64 60 53 46 44 45 34 26 35 36 21 28 41 26 27 39 33 43 49 37 35 40 16 45 50 58 63 71
51 50 50 49 48 48 48 49 51 53 56 60 64 68 72 76 77 73 68 63 54 48 42 35 36 26 30 76 42 26 24 33 25 39 50 44 52 52 33 28 78 66 45 33 48 60 51
53 53 52 51 50 49 50 51 53 56 59 63 67 71 75 77 80 71 62 53 46 25 29 29 32 19 28 47 21 23 19 26 24 37 50 43 45 49 53 53 53 33 30 35 46 50 50
55 55 54 53 53 52 53 54 56 59 63 66 70 74 79 80 78 64 52 45 26 45 38 33 26 15 27 22 29 14 23 27 24 25 26 38 39 46 45 28 31 25 32 42 48 42 41
57 57 55 54 54 55 57 58 60 64 66 69 73 77 81 85 77 54 48 39 37 25 7 10 9 11 39 14 31 56 51 29 26 19 24 24 35 19 23 27 30 34 47 43 49 48 50
58 57 57 57 57 59 60 61 64 65 68 71 75 80 83 86 68 40 44 50 47 6 18 28 44 42 70 89 77 55 43 27 33 20 13 16 10 30 34 40 46 38 40 45 31 39 32
57 58 59 59 60 61 61 64 67 68 69 72 76 80 85 83 48 28 32 34 22 17 36 60 44 61 68 51 54 48 37 30 22 17 16 19 27 43 35 39 46 50 47 42 32 36 39
57 58 59 60 60 60 62 65 69 71 71 73 79 84 87 71 29 25 31 36 29 35 11 34 25 35 35 31 30 47 40 40 20 25 28 26 21 29 50 42 43 52 46 38 31 32 32
57 59 60 60 61 63 66 67 69 71 73 75 81 85 78 48 18 23 22 44 35 42 4 9 22 18 32 51 20 18 19 31 10 19 38 23 34 36 40 48 42 44 42 42 31 25 27
57 59 60 61 62 65 67 67 70 73 75 77 82 79 59 25 37 29 42 44 41 30 9 10 34 45 71 29 47 5 20 11 20 28 21 17 18 25 36 42 43 40 39 35 37 26 3
57 59 62 62 63 64 66 69 72 74 78 80 80 61 33 20 32 40 51 44 24 5 9 19 47 47 50 35 24 10 2 8 11 16 27 38 38 28 18 29 41 36 37 37 31 18 14
57 59 61 63 64 65 67 70 74 77 79 84 78 40 21 28 36 38 38 31 6 3 35 31 52 51 25 39 33 27 30 7 8 9 15 20 39 37 28 13 34 41 29 15 21 16 12
57 58 62 64 65 66 68 70 75 79 82 85 67 26 16 25 35 30 40 7 4 30 25 39 43 43 20 36 32 38 22 11 13 15 7 8 8 36 43 47 12 37 27 6 9 16 21
56 59 63 64 65 66 68 72 75 80 83 80 42 18 22 32 29 22 29 7 7 21 32 37 38 20 24 39 23 27 26 3 14 8 6 8 11 26 34 18 19 12 23 35 10 10 10
56 59 62 64 65 66 68 72 72 79 79 67 43 26 17 47 38 24 9 9 16 26 33 30 15 11 26 35 25 28 15 4 12 18 10 8 12 24 36 29 30 16 12 20 8 9 11
54 58 62 65 65 66 68 70 68 75 74 59 37 18 34 33 22 24 5 8 21 43 42 20 28 21 27 16 14 12 11 14 2 15 23 6 7 6 35 12 20 7 4 9 5 8 10
52 56 62 65 65 66 67 66 65 66 72 57 24 8 38 36 19 16 8 12 23 30 38 17 13 13 10 15 13 10 15 18 1 17 16 9 6 8 27 27 36 13 16 17 14 12 6
52 57 61 63 64 65 65 64 61 59 57 64 36 13 31 32 7 9 16 23 23 26 30 16 12 19 7 19 16 13 16 18 13 19 8 10 3 7 12 15 7 9 15 22 16 5 7
53 55 59 62 64 63 63 63 60 52 44 40 20 9 19 18 43 18 19 21 31 36 18 37 21 24 25 25 22 17 24 16 48 12 18 11 7 6 3 6 8 7 11 9 7 1 10
53 55 57 60 61 62 62 62 60 53 36 34 24 11 15 10 16 33 24 30 39 27 23 20 7 16 39 23 31 7 37 42 24 11 8 11 7 10 20 29 15 11 12 9 11 23 9
51 52 55 58 60 60 59 60 57 55 35 26 15 14 19 47 44 29 18 26 37 42 23 21 26 41 36 30 22 49 44 40 11 3 2 4 5 13 11 6 16 6 15 19 23 45 31
52 51 52 56 58 58 56 55 51 51 46 18 29 27 18 25 19 21 15 32 40 38 17 44 39 40 39 28 62 71 68 66 33 12 4 2 3 4 2 3 7 14 11 15 4 25 27
51 52 50 53 54 55 53 51 46 42 36 21 18 28 11 10 17 22 38 40 40 34 30 57 44 33 50 88 83 51 25 22 17 7 13 6 5 3 11 7 8 10 36 22 18 14 29
52 49 49 50 51 52 50 48 43 37 35 29 14 20 11 11 31 34 41 42 52 43 31 37 65 73 72 43 9 12 8 6 8 20 22 7 3 3 9 9 7 15 19 11 15 17 40
52 47 46 46 47 49 50 44 41 36 35 31 15 15 19 16 9 44 46 47 23 23 19 38 51 54 62 6 10 11 10 11 12 24 18 18 11 2 7 9 7 4 25 41 28 10 23
55 49 43 43 44 47 46 40 39 35 32 33 8 11 23 20 39 34 25 26 30 32 15 27 51 24 49 15 10 8 7 16 11 19 16 12 10 12 9 10 7 14 46 26 8 9 48
55 51 40 41 41 45 45 40 38 35 32 34 23 4 23 20 62 30 29 59 60 42 10 37 18 9 8 13 9 8 8 10 9 6 13 13 9 8 8 8 8 47 42 6 14 48 53
53 48 38 40 39 44 44 40 37 34 31 32 35 16 15 35 58 60 38 39 49 42 37 16 11 7 9 5 5 6 5 8 14 9 16 9 11 6 10 5 14 49 45 52 62 62 63
Wind_Direction_850mb
16 14 11 8 8 6 4 1 357 354 353 349 348 347 346 345 343 338 332 326 320 321 311 309 311 312 309 271 258 310 334 317 310 284 248 232 224 228 240 243 248 234 238 245 248 257 262
16 12 10 9 9 6 3 359 355 353 350 348 349 348 346 343 341 335 330 325 320 314 306 309 308 310 283 262 304 297 291 292 268 249 261 255 246 235 271 238 245 256 232 240 248 246 254
15 12 10 7 7 4 0 357 353 350 348 347 348 346 344 342 339 333 328 327 324 317 306 299 300 295 265 264 297 296 270 317 319 264 274 274 243 235 230 245 248 249 263 244 230 241 246
12 11 10 7 4 1 358 355 352 348 346 347 346 344 342 340 337 332 330 334 330 337 300 288 287 276 258 315 298 306 306 294 308 286 274 271 275 280 263 265 280 251 246 245 239 230 236
10 10 7 5 2 359 356 354 350 347 346 345 344 343 341 339 336 331 333 342 344 327 298 281 265 250 266 324 277 320 344 260 283 315 288 263 275 281 275 261 259 256 230 233 240 231 220
9 7 5 3 1 358 355 352 349 347 345 344 344 342 339 337 335 332 335 349 350 335 33 353 287 242 259 259 299 298 303 278 264 265 286 271 278 271 262 243 231 227 218 229 224 224 210
7 5 2 1 359 357 354 350 348 347 345 345 343 341 338 337 335 337 340 347 358 332 296 283 269 246 277 278 287 288 282 287 285 221 256 243 256 240 246 232 243 244 246 236 249 221 231
4 3 1 359 358 357 353 349 347 347 347 345 341 341 339 336 335 348 337 338 3 313 308 313 283 265 267 285 272 279 282 282 295 240 256 260 225 251 242 257 236 245 244 235 227 223 225
2 1 359 357 357 354 352 350 347 347 346 344 341 343 339 337 340 354 330 340 321 335 297 306 312 301 335 320 311 271 297 279 245 265 250 238 246 249 247 247 258 238 238 243 230 206 230
-0 360 358 356 354 353 352 350 347 346 345 343 340 344 339 342 4 3 356 341 325 333 334 272 346 353 312 316 301 289 321 293 212 244 257 223 241 240 251 240 244 249 238 244 247 217 215
359 359 356 355 354 354 352 349 347 346 343 343 342 346 344 343 344 338 337 331 321 339 313 33 357 342 338 351 317 308 289 207 257 256 279 269 213 248 237 237 237 266 241 236 250 264 224
358 358 356 355 355 354 352 350 347 345 344 343 343 346 349 4 344 346 343 324 313 325 313 336 346 338 338 340 14 321 292 348 2 259 262 264 260 252 270 271 234 244 269 243 246 247 258
357 357 355 355 355 354 353 351 346 344 344 341 343 346 356 345 347 355 346 336 14 33 336 340 336 332 337 352 346 352 322 231 216 243 219 266 234 230 219 257 255 229 233 228 217 218 214
355 355 355 356 355 355 354 352 347 345 345 343 349 354 13 335 349 345 337 4 310 346 337 334 333 319 353 358 333 344 317 341 272 221 303 264 266 195 201 220 189 224 225 215 137 158 209
353 354 356 356 355 356 354 354 349 346 349 349 6 26 13 338 337 324 4 10 349 1 344 332 330 333 338 336 347 347 326 284 350 206 281 302 258 185 185 151 146 218 213 199 309 177 133
354 354 354 355 356 356 356 356 352 347 354 356 358 11 21 350 7 332 47 306 347 354 340 339 317 322 317 332 342 342 297 358 340 355 308 288 300 188 178 175 185 221 180 192 191 183 156
352 352 353 356 356 356 357 357 356 349 356 3 10 338 6 12 28 34 77 311 318 346 349 338 315 306 318 322 310 306 285 298 12 313 329 252 265 215 157 159 205 166 181 241 17 264 160
349 350 354 357 357 357 357 360 358 354 352 12 15 330 2 17 42 350 351 336 316 355 348 325 295 310 305 304 283 295 298 313 50 11 323 302 322 298 177 156 196 194 215 185 181 260 290
347 351 354 355 356 357 357 0 1 358 355 351 341 288 343 22 32 349 320 310 338 356 340 353 310 315 316 311 305 247 278 304 327 319 297 339 287 323 345 114 106 172 234 184 180 344 171
347 349 352 354 355 356 357 358 1 4 4 360 343 344 343 356 351 339 316 347 351 354 336 336 305 305 310 312 294 284 289 301 318 327 249 188 292 258 210 137 145 113 309 161 179 357 53
344 347 350 352 354 355 355 356 359 9 7 15 16 15 23 312 320 311 309 2 346 343 354 350 299 325 329 309 312 272 313 312 329 132 325 185 259 248 265 285 128 161 250 326 289 210 131
341 343 347 350 350 352 354 355 358 4 20 23 27 351 323 297 290 318 17 345 349 337 346 334 324 323 314 302 294 309 308 301 282 183 125 304 291 346 257 311 337 187 206 230 256 200 121
336 339 345 347 348 349 352 354 357 3 14 43 8 347 315 285 324 333 339 336 340 333 314 326 323 318 318 314 306 290 283 274 259 238 256 230 277 218 342 148 290 211 255 201 354 69 122
332 335 341 343 344 346 347 351 354 2 11 26 357 340 308 297 332 327 308 333 329 332 322 319 337 338 311 312 305 291 273 62 38 26 224 186 264 14 139 96 73 36 24 24 81 79 105
329 331 335 337 339 341 342 347 349 358 357 3 18 331 313 299 307 311 330 324 320 322 327 313 335 332 329 317 312 338 21 7 2 5 3 245 317 292 131 108 138 25 17 18 350 120 128
326 328 329 333 334 332 337 341 346 349 349 3 53 351 316 303 274 322 312 306 320 329 320 333 340 342 357 306 342 1 10 331 347 342 355 33 51 218 92 80 96 346 316 353 332 110 138
320 322 325 329 324 327 333 335 338 343 344 346 14 334 315 279 281 306 300 301 304 321 298 319 346 346 6 350 358 352 7 347 6 4 341 359 358 18 54 90 65 340 322 310 184 151 143
319 321 321 317 316 325 327 331 333 336 340 338 355 3 314 276 296 289 298 297 291 296 299 317 334 24 332 8 6 346 340 359 352 46 349 20 328 13 347 75 64 341 336 352 127 123 123
317 319 312 310 316 323 325 327 325 329 331 328 323 314 278 290 277 311 306 310 290 299 274 309 292 313 356 334 5 314 344 333 341 17 3 44 348 11 29 79 289 312 265 92 98 94 110